Regional Weather Roundup
Issued by NWS Portland, ME

Current Version | Previous Version | Text Only | Print | Product List | Glossary Off
Versions: 1 2 3 4 5 6 7 8 9 10 11 12 13 14 15 16 17 18 19 20 21 22 23 24 25 26 27 28 29 30 31 32 33 34 35 36 37 38 39 40 41 42 43 44 45 46 47 48 49 50
000 ASUS41 KGYX 191410 RWRGYX WEATHER ROUNDUP FOR MAINE AND NEW HAMPSHIRE NATIONAL WEATHER SERVICE GRAY ME 1000 AM EDT FRI OCT 19 2018 MEZ002-005-006-010-012-015-018-020-021-024-026-027-029-191500- MAINE CITY SKY/WX TMP DP RH WIND PRES REMARKS PORTLAND FAIR 44 30 57 SW7 30.14 SANFORD FAIR 43 30 60 SW8 30.15F BAR HARBOR CLOUDY 42 27 55 SW7 30.14F WISCASSET FAIR 44 30 57 SW7 30.14 ROCKLAND FAIR 45 31 58 SW9 30.13F FRYEBURG FAIR 44 29 55 S7 30.10F LEWISTONAUBURN FAIR 43 30 60 SW7 30.11F AUGUSTA FAIR 42 27 55 SW10G17 30.11 WATERVILLE PTSUNNY 42 28 57 SW9 30.08F BANGOR CLOUDY 38 24 57 S7 30.11 GREENVILLE N/A 30 22 72 SE3 30.00F MILLINOCKET CLOUDY 33 24 69 CALM 30.09 HOULTON CLOUDY N/A N/A N/A SW9 30.07 PRESQUE ISLE CLOUDY 32 21 64 VRB5 30.06F FRENCHVILLE PTSUNNY 31 18 58 VRB5 30.00 CARIBOU FAIR 33 19 56 SW8 30.03 $$ NHZ002-005-008-009-011-012-014-191500- NEW HAMPSHIRE CITY SKY/WX TMP DP RH WIND PRES REMARKS PORTSMOUTH MOSUNNY 44 30 58 SW7 30.15F ROCHESTER FAIR 43 32 65 VRB5 30.15 NASHUA FAIR 45 33 63 VRB6 30.19F MANCHESTER FAIR 42 31 64 S7 30.16 CONCORD FAIR 41 31 67 SE5 30.16 LACONIA FAIR 42 30 62 SW12 30.13F PLYMOUTH FAIR 37 30 74 CALM 30.13F BERLIN FAIR 44 31 60 VRB6 30.04 WHITEFIELD FAIR 45 31 58 VRB6 30.06 JAFFREY FAIR 40 31 70 S9 30.16 KEENE N/A 39 32 76 CALM 30.17F LEBANON FAIR 45 31 58 S10 30.11 MT WASHINGTON MOSUNNY 25 23 93 W58 N/A WCI 3 $$ VTZ005-007-008-191500- VERMONT CITY SKY/WX TMP DP RH WIND PRES REMARKS ST JOHNSBURY N/A 40 29 64 MISG 30.06F MONTPELIER FAIR 41 33 73 S13 30.09 BURLINGTON FAIR 46 33 60 S15G25 30.06F $$ MAZ007-012-024-CTZ003-RIZ002-NYZ038-NYZ072-191500- SOUTHERN NEW ENGLAND AND NY CITY SKY/WX TMP DP RH WIND PRES REMARKS BOSTON FAIR 48 31 51 SW14 30.20F WORCESTER FAIR 43 30 60 W15 30.18 NANTUCKET FAIR 52 36 54 W15 30.25 PROVIDENCE FAIR 48 31 51 SW13 30.25 HARTFORD FAIR 44 31 60 S6 30.23 ALBANY FAIR 42 30 62 S9 30.20 NEW YORK CITY FAIR 51 30 44 SW10 30.29 $$ ANZ081-ANZ082-ANZ150-NHZ014-MEZ023>029-191500- COASTAL MARINE OBSERVATIONS STATION/POSITION TIME TEMP WIND PRES WAVE AIR SEA DIR/SP/G HT/PER (UTC) (F) (DEG/KT/KT) (MB) (FT/S) MOUNT DESERT ROC 1400 45 230/ 17/ 20 1020.6F MATINICUS ROCK 1300 45 250/ 17/ 18 1020.8S ISLE OF SHOALS 1300 40 230/ 16/ 17 1022.1F JEFFREYS LEDGE 1306 55 N/A 3/ 4 $$ .............KEY.............. WCI - WIND CHILL TC - TEMPERATURE IN CELSIUS VSB - VISIBILITY IN MILES HX - HEAT INDEX FAIR- INDICATES FEW OR NO CLOUDS BELOW 12,000 FT, WITH NO SIGNIFICANT WEATHER AND/OR OBSTRUCTIONS TO VISIBILITY.

USA.gov is the U.S. government's official web portal to all federal, state and local government web resources and services.